Regional Weather Roundup
Issued by NWS

Home | Current Version | Previous Version | Text Only | Print | Product List | Glossary Off
Versions: 1 2 3 4 5 6 7 8 9 10 11 12 13 14 15 16 17 18 19 20 21 22 23 24 25 26 27 28 29 30 31 32 33 34 35 36 37 38 39 40 41 42 43 44 45 46 47 48 49 50

642
ASUS45 KCYS 230810
RWRWY

WYOMING REGIONAL WEATHER ROUNDUP
NATIONAL WEATHER SERVICE CHEYENNE WY
200 AM MDT SAT JUL 23 2016

NOTE:  "FAIR" INDICATES FEW OR NO CLOUDS BELOW 12,000 FEET
WITH NO SIGNIFICANT WEATHER AND/OR OBSTRUCTIONS TO VISIBILITY.

WYZ001-230900-
YELLOWSTONE NATIONAL PARK

CITY           SKY/WX    TMP DP  RH WIND       PRES   REMARKS
LK YELLOWSTONE   N/A     45  24  43 CALM      30.29F
W YELLOWSTONE  NOT AVBL

$$
WYZ002>013-054>058-071-098>099-230900-
NORTHERN WYOMING

CITY           SKY/WX    TMP DP  RH WIND       PRES   REMARKS
JACKSON        FAIR      61  25  25 S10       30.21S
CODY           FAIR      70  34  26 NE6       30.06R
GREYBULL       FAIR      73  34  23 NW12      29.94R
WORLAND        FAIR      65  41  41 NE3       29.95R
SHERIDAN       FAIR      80  38  22 MISG      29.93R
BUFFALO        FAIR      77  39  25 SW5       29.98S
GILLETTE       FAIR      73  48  41 S16       29.91S
HULETT         FAIR      77  55  47 S24G31    29.92F
NEWCASTLE      FAIR      72  50  46 SE9       29.99S

$$
WYZ014>020-022>026-101>103-230900-
CENTRAL WYOMING

CITY           SKY/WX    TMP DP  RH WIND       PRES   REMARKS
BIG PINEY      FAIR      54  25  32 N13       30.28R
PINEDALE       FAIR      46  43  87 NW6       30.29S
DUBOIS         FAIR      54  27  35 NW13      30.24S
LANDER         FAIR      73  41  31 W9        30.08S
RIVERTON       FAIR      70  43  37 NW9       30.09S
CASPER         FAIR      70  43  37 SW12      30.06F
DOUGLAS          N/A    N/A N/A N/A MISG      30.05S

$$
WYZ021-027>030-104>119-230900-
SOUTHERN WYOMING

CITY           SKY/WX    TMP DP  RH WIND       PRES   REMARKS
EVANSTON       FAIR      65  29  25 CALM      30.31R
KEMMERER         N/A     57  32  38 N6        30.31S
FORT BRIDGER   FAIR      65  32  29 W9        30.31F
ROCK SPRINGS   FAIR      68  37  32 SW15      30.23F
DIXON          FAIR      55  48  78 E3        30.29S
RAWLINS        FAIR      68  40  35 SW9       30.23S
SARATOGA       FAIR      61  41  48 S8        30.27S
LARAMIE        FAIR      63  44  50 SW13G23   30.26S
CHEYENNE       FAIR      70  47  43 W3        30.17F
TORRINGTON     FAIR      66  61  84 W3        29.99F
PINE BLUFFS    FAIR      66  61  82 W5        30.10S

$$




USA.gov is the U.S. government's official web portal to all federal, state and local government web resources and services.